Regional Weather Roundup
Issued by NWS Charleston, WV

Home | Current Version | Previous Version | Graphics & Text | Print | Product List | Glossary Off
Versions: 1 2 3 4 5 6 7 8 9 10 11 12 13 14 15 16 17 18 19 20 21 22 23 24 25 26 27 28 29 30 31 32 33 34 35 36 37 38 39 40 41 42 43 44 45 46 47 48 49 50

000
ASUS41 KRLX 290810
RWRRLX
West Virginia Regional Weather Roundup
National Weather Service Charleston WV
400 AM EDT FRI MAY 29 2015

Note: "fair" indicates few or no clouds below 12,000 feet with no
significant weather and/or obstructions to visibility.

WVZ003-290900-
Northern Panhandle of West Virginia

CITY           SKY/WX    TMP DP  RH WIND       PRES   REMARKS
WHEELING       CLEAR     65  54  67 E7        30.19F
$$

WVZ009-290900-
Northwest West Virginia

CITY           SKY/WX    TMP DP  RH WIND       PRES   REMARKS
PARKERSBURG    PTCLDY    63  61  93 CALM      30.18F FOG
$$

WVZ006-290900-
Western West Virginia

CITY           SKY/WX    TMP DP  RH WIND       PRES   REMARKS
HUNTINGTON     CLEAR     66  65  96 CALM      30.12F
$$

WVZ015-290900-
West Central West Virginia

CITY           SKY/WX    TMP DP  RH WIND       PRES   REMARKS
CHARLESTON     CLEAR     64  63  96 CALM      30.14F FOG
$$

WVZ022-031-290900-
North Central West Virginia

CITY           SKY/WX    TMP DP  RH WIND       PRES   REMARKS
CLARKSBURG     CLEAR     63  61  93 CALM      30.19F
MORGANTOWN     CLEAR     70  52  52 SE10      30.20F
$$

WVZ025-035-042-045-290900-
Southern West Virginia

CITY           SKY/WX    TMP DP  RH WIND       PRES   REMARKS
BECKLEY        PTCLDY    62  59  90 CALM      30.22F
LOGAN            N/A     68  63  83 CALM      30.14F
BLUEFIELD      PTCLDY    67  57  70 VRB3      30.24F
LEWISBURG      CLEAR     61  59  92 CALM      30.25F
$$

WVZ047-290900-
Northern Mountains of West Virginia

CITY           SKY/WX    TMP DP  RH WIND       PRES   REMARKS
ELKINS         FOG       58  56  93 CALM      30.25F VSB 1/4
$$

WVZ052-290900-
Eastern Panhandle of West Virginia

CITY           SKY/WX    TMP DP  RH WIND       PRES   REMARKS
MARTINSBURG    MOCLDY    69  55  60 N3        30.23S
PETERSBURG     FOG       62  60  91 CALM      30.24S VSB 1/2
$$


USA.gov is the U.S. government's official web portal to all federal, state and local government web resources and services.